HB9ADJ Weather Reports


time (UTC)temp
C
wind
direction
speed
KPH
gust
KPH
rain 1hr
cm
rain 24hr
cm
rain mn
cm
humidity
%
barometer
mb
20260503071537 16 0 0.0 3.2 0.00 0.00 0.00 73 1016.6
20260503054556 13 80 1.6 9.7 0.00 0.00 0.00 79 1017.3
20260503053036 12 0 0.0 0.0 0.00 0.00 0.00 84 1017.1
20260503051535 12 0 0.0 1.6 0.00 0.00 0.00 85 1017.1
20260503050036 12 0 0.0 0.0 0.00 0.00 0.00 82 1017.3
20260503044540 13 0 0.0 0.0 0.00 0.00 0.00 80 1017.2
20260503043048 12 0 0.0 0.0 0.00 0.00 0.00 81 1017.3
20260503041533 13 0 0.0 0.0 0.00 0.00 0.00 81 1017.2
20260503040036 12 0 0.0 3.2 0.00 0.00 0.00 82 1017.3
20260503034531 12 0 0.0 1.6 0.00 0.00 0.00 82 1017.3
20260503033038 13 0 0.0 1.6 0.00 0.00 0.00 80 1017.2
20260503031537 13 0 0.0 0.0 0.00 0.00 0.00 80 1017.3
20260503030037 13 0 0.0 0.0 0.00 0.00 0.00 80 1017.1
20260503024538 13 0 0.0 1.6 0.00 0.00 0.00 79 1017.2
20260503023043 13 0 0.0 3.2 0.00 0.00 0.00 78 1017.2
20260503021533 14 309 3.2 6.4 0.00 0.00 0.00 76 1017.1
20260503020039 15 331 6.4 11.3 0.00 0.00 0.00 72 1017.2
20260503014537 15 331 8.0 16.1 0.00 0.00 0.00 70 1017.1
20260503013041 15 7 6.4 12.9 0.00 0.00 0.00 71 1017.0
20260503011542 15 37 3.2 8.0 0.00 0.00 0.00 72 1017.3
20260503010034 14 44 3.2 4.8 0.00 0.00 0.00 76 1017.5
20260503004540 13 22 1.6 4.8 0.00 0.00 0.00 78 1017.4
20260503003046 13 354 0.0 1.6 0.00 0.00 0.00 78 1017.8
20260503001541 12 0 0.0 0.0 0.00 0.00 0.00 81 1017.7
20260503000041 12 0 0.0 1.6 0.00 0.00 0.00 83 1017.7
20260502234543 12 0 0.0 0.0 0.00 0.00 0.00 84 1017.9
20260502233041 12 0 0.0 0.0 0.00 0.00 0.00 83 1018.2
20260502231536 12 0 0.0 0.0 0.00 0.00 0.00 81 1018.3
20260502230037 13 0 0.0 0.0 0.00 0.00 0.00 80 1018.4
20260502224543 13 0 0.0 0.0 0.00 0.00 0.00 80 1018.6
20260502223042 13 0 0.0 0.0 0.00 0.00 0.00 79 1018.6
20260502221533 13 0 0.0 0.0 0.00 0.00 0.00 79 1018.6
20260502220035 13 0 0.0 0.0 0.00 0.00 0.00 79 1018.7
20260502214537 13 0 0.0 0.0 0.00 0.00 0.00 79 1018.8
20260502213031 14 0 0.0 0.0 0.00 0.00 0.00 77 1018.6
20260502211549 14 0 0.0 0.0 0.00 0.00 0.00 77 1018.6
20260502210040 15 0 0.0 0.0 0.00 0.00 0.00 76 1018.7
20260502204534 15 0 0.0 0.0 0.00 0.00 0.00 75 1018.7
20260502203040 15 0 0.0 0.0 0.00 0.00 0.00 74 1018.6
20260502201537 15 0 0.0 0.0 0.00 0.00 0.00 76 1018.5
20260502200036 15 0 0.0 0.0 0.00 0.00 0.00 76 1018.4
20260502194533 16 0 0.0 3.2 0.00 0.00 0.00 75 1018.2
20260502193038 16 0 0.0 0.0 0.00 0.00 0.00 70 1018.2
20260502191531 17 0 0.0 0.0 0.00 0.00 0.00 68 1018.0
20260502190043 17 0 0.0 0.0 0.00 0.00 0.00 67 1017.9
20260502184538 17 0 0.0 0.0 0.00 0.00 0.00 68 1017.8
20260502183035 18 0 0.0 0.0 0.00 0.00 0.00 67 1017.7
20260502181542 20 0 0.0 0.0 0.00 0.00 0.00 64 1017.6
20260502163047 22 7 11.3 19.3 0.00 0.00 0.00 49 1018.0
20260502161534 22 32 11.3 17.7 0.00 0.00 0.00 46 1018.1
20260502151548 22 2 12.9 22.5 0.00 0.00 0.00 52 1018.5
20260502123038 21 334 14.5 24.1 0.00 0.00 0.00 56 1020.4
20260502121538 21 21 16.1 27.4 0.00 0.00 0.00 55 1020.5
20260502114537 21 347 12.9 19.3 0.00 0.00 0.00 57 1021.1
20260502113033 20 340 14.5 22.5 0.00 0.00 0.00 57 1021.1
20260502111538 20 42 12.9 20.9 0.00 0.00 0.00 56 1021.4
20260502110033 20 20 12.9 22.5 0.00 0.00 0.00 57 1021.6
20260502104537 20 351 12.9 20.9 0.00 0.00 0.00 60 1021.7
20260502103033 19 342 12.9 25.7 0.00 0.00 0.00 63 1022.1
20260502101537 19 326 11.3 20.9 0.00 0.00 0.00 64 1022.2
20260502091534 18 318 11.3 16.1 0.00 0.00 0.00 60 1022.8